TimeCET,TemperatureF,Dew PointF,Humidity,Sea Level PressureIn,VisibilityMPH,Wind Direction,Wind SpeedMPH,Gust SpeedMPH,PrecipitationIn,Events,Conditions,WindDirDegrees,DateUTC
12:00 AM,42.8,42.8,100,29.68,0.3,Calm,Calm,-,N/A,Fog,Fog,0,2012-11-27 23:00:00
1:00 AM,42.8,42.8,100,29.65,0.3,Calm,Calm,-,N/A,Fog,Fog,0,2012-11-28 00:00:00
2:00 AM,42.8,42.8,100,29.65,0.2,Calm,Calm,-,N/A,Fog,Fog,0,2012-11-28 01:00:00
3:00 AM,42.8,42.8,100,29.65,0.2,Calm,Calm,-,N/A,Fog,Fog,0,2012-11-28 02:00:00
4:00 AM,44.6,42.8,93,29.62,0.2,ENE,1.2,-,N/A,Fog,Fog,70,2012-11-28 03:00:00
5:00 AM,44.6,42.8,93,29.59,0.2,Calm,Calm,-,N/A,Fog,Fog,0,2012-11-28 04:00:00
7:00 AM,42.8,42.8,100,29.59,0.4,WSW,2.3,-,N/A,Fog,Fog,240,2012-11-28 06:00:00
7:30 AM,42.8,42.8,100,29.59,0.5,West,2.3,-,N/A,Fog,Fog,270,2012-11-28 06:30:00
8:00 AM,42.8,42.8,100,29.56,0.6,Calm,Calm,-,N/A,Fog,Fog,0,2012-11-28 07:00:00
8:04 AM,44.6,42.8,93,29.56,0.8,Calm,Calm,-,N/A,,Overcast,0,2012-11-28 07:04:00
9:05 AM,44.6,44.6,100,29.56,0.9,Calm,Calm,-,N/A,,Overcast,0,2012-11-28 08:05:00
10:00 AM,44.6,44.6,100,29.56,1.2,Variable,2.3,-,N/A,,Overcast,0,2012-11-28 09:00:00
11:00 AM,46.4,44.6,93,29.56,1.6,Calm,Calm,-,N/A,,Overcast,0,2012-11-28 10:00:00
12:00 PM,46.4,44.6,93,29.53,2.2,Variable,2.3,-,N/A,,Overcast,0,2012-11-28 11:00:00
1:00 PM,46.4,44.6,93,29.53,2.5,NW,3.5,-,N/A,,Overcast,310,2012-11-28 12:00:00
2:00 PM,46.4,44.6,93,29.50,2.8,Variable,1.2,-,N/A,,Overcast,0,2012-11-28 13:00:00
3:00 PM,46.4,44.6,93,29.50,2.8,West,5.8,-,N/A,,Overcast,270,2012-11-28 14:00:00
4:00 PM,46.4,44.6,93,29.50,2.8,West,3.5,-,N/A,,Overcast,280,2012-11-28 15:00:00
4:52 PM,46.4,44.6,93,29.47,3.7,West,2.3,-,N/A,,Overcast,260,2012-11-28 15:52:00
5:00 PM,46.4,44.6,93,29.47,3.7,West,1.2,-,N/A,,Overcast,260,2012-11-28 16:00:00
6:00 PM,44.6,42.8,93,29.44,3.7,Variable,2.3,-,N/A,,Overcast,0,2012-11-28 17:00:00
7:00 PM,44.6,44.6,100,29.44,3.7,SW,1.2,-,N/A,,Overcast,220,2012-11-28 18:00:00
8:00 PM,44.6,42.8,93,29.44,3.7,Calm,Calm,-,N/A,,Overcast,0,2012-11-28 19:00:00
9:00 PM,42.8,42.8,100,29.42,3.7,Calm,Calm,-,N/A,,Unknown,0,2012-11-28 20:00:00
9:23 PM,42.8,41.0,93,29.42,2.5,Calm,Calm,-,N/A,Fog,Fog,0,2012-11-28 20:23:00
9:29 PM,41.0,39.2,93,29.42,0.6,Calm,Calm,-,N/A,Fog,Fog,0,2012-11-28 20:29:00
10:00 PM,39.2,39.2,100,29.42,0.3,Calm,Calm,-,N/A,Fog,Fog,0,2012-11-28 21:00:00
11:00 PM,39.2,37.4,93,29.39,0.2,SSW,1.2,-,N/A,Fog,Fog,210,2012-11-28 22:00:00
11:52 PM,41.0,41.0,100,29.36,1.2,East,1.2,-,N/A,Rain,Light Rain,90,2012-11-28 22:52:00